STARLINK-31081 (58632 NORAD) Tracking and Keplerian Element Data

This shows tracking and keplerian element data for the satellite.

Feedback or suggestion? Click here.




ElementValue
Catalog58632
NameSTARLINK-31081
Epoch Orbit451
Epoch Day13.25002315
Epoch Year2024
RAAN183.7192
Inclination43.0011
Eccentricity0.0001587
Argument of Perigee262.2518
Mean Anonmoly11.3036
Mean Motion15.52623584
Decay Rate-0.01740701
L11 58632U 23203Q 24013.25002315 -.01740701 00000+0 -30930-1 0 9999
L22 58632 43.0011 183.7192 0001587 262.2518 11.3036 15.52623584 4518



Live tracking and technical data element details for STARLINK-31081 (NORAD 58632). STARLINK-31081 can be tracked NOW for your location showing map with azimuth and elevation plus other details from your city location.







IsCatalogInMostPopularTable: catalog: 58632, numindb: 23
Update: records affected: 1



GetName: 58632 STARLINK-31081

Hit Count: updated at: Wed, 17 Apr 2024 03:08:03 GMT